West Coast Haida Gwaii - southern half: Past 24 Hour Conditions

 

Bella Bella Airport

03:00 PM PDT 01 October 2014
This table is a summary of hourly weather conditions for the past 24 hours.
Date / Time
(PDT)
Wind(knots) Conditions Visibility(km) Pressure(kPa) Air tempC) Relative humidity(%) Dew pointC)
01 October 2014
15:00 W 4 Mostly Cloudy 16 102.4 15 53 5
14:00 NW 4 Cloudy 16 102.4 14 51 4
13:00 N 4 Mostly Cloudy 16 102.4 14 53 5
12:00 NNW 6 Mostly Cloudy 16 102.4 14 58 6
11:00 WNW 6 Mainly Sunny 16 102.3 14 59 6
10:00 SE 3 Mostly Cloudy 13 102.3 12 91 11
9:00 W 3 Cloudy 16 102.3 12 90 10
8:00 E 2 Mist 8 102.3 10 97 10
7:00 SSE 4 Mist 8 102.3 10 97 9
6:00 SE 4 Cloudy 13 102.3 10 97 9
5:00 calm Mostly Cloudy 16 102.3 8 97 7
4:00 SSE 2 Mist 5 102.3 8 96 8
3:00 SSW 2 Mist 10 102.3 10 96 9
2:00 SSW 2 Mostly Cloudy 13 102.3 10 96 9
1:00 S 3 Mostly Cloudy 11 102.3 11 96 11
0:00 S 4 Mostly Cloudy 16 102.2 12 95 11
30 September 2014
23:00 SE 5 Cloudy 15 102.2 12 95 11
22:00 E 3 Mostly Cloudy 16 102.2 12 95 11
21:00 SE 6 Cloudy 16 102.2 12 92 11
20:00 SSE 4 Mostly Cloudy 16 102.2 12 92 10
19:00 SW 4 Cloudy 16 102.2 14 80 10
18:00 SW 3 Mostly Cloudy 16 102.2 14 77 11
17:00 SW 5 Cloudy 16 102.2 15 72 10
16:00 W 3 Mostly Cloudy 16 102.1 15 70 10
15:00 WNW 4 Cloudy 16 102.1 16 67 10
 
Map of Pacific - South Coast marine weather areas Tsawwassen Ferry Terminal South Nomad - 46036 Sentry Shoal - 46131 South Brooks - 46132 Halibut Bank - 46146 South Moresby - 46147 South Hecate Strait - 46185 West Sea Otter - 46204 La Perouse Bank - 46206 East Dellwood - 46207 Discovery Island Esquimalt Harbour Kelp Reefs Malahat Race Rocks Lightstation Saturna Island Sheringham Point University of Victoria Victoria Gonzales Victoria Int'l Airport Ballenas Islands Campbell River Airport Comox Airport Entrance Island Fanny Island Nanaimo Airport Port Hardy Airport Sisters Islets Estevan Point Sartine Island Solander Island Tofino Airport Grief Point Powell River Airport Sechelt Cape St.James Bella Bella Airport Bella Coola Airport Cathedral Point Herbert Island Point Atkinson Sand Heads Lightstation Vancouver Harbour Vancouver Int'l Airport West Vancouver Port Alberni Howe Sound - Pam Rocks Squamish Airport